{"data":{"norad_id":60314,"intl_designator":"2024-133P","name":"STARLINK-32191","alt_names":[],"object_type":"PAYLOAD","status":"ACTIVE","operator":null,"country":"US","launch_date":"2024-07-28","launch_site_code":"AFWTR","launch_vehicle":null,"mission":null,"orbit_class":"UNKNOWN","rcs_meters":null,"size_class":null,"mass_kg":null,"dimensions":null,"purposes":["comms"],"wikipedia_slug":null,"has_3d_model":false,"image_url":null,"decayed_at":null,"tle_current":{"epoch":"2026-05-24T22:04:57.523872Z","epoch_age_seconds":78085,"freshness":"FRESH","line1":"1 60314U 24133P   26144.92011023 -.00000869  00000+0 -17247-4 0  9991","line2":"2 60314  53.1608 302.8253 0000847  91.4090 268.7008 15.30192543103316","mean_motion":15.30192543,"eccentricity":8.47e-5,"inclination_deg":53.1608,"raan_deg":302.8253,"arg_perigee_deg":91.409,"mean_anomaly_deg":268.7008,"bstar":-1.7247e-5,"rev_number":10331,"period_min":94.105804304655,"perigee_km":474.65685396146,"apogee_km":475.81781557377,"semimajor_km":6853.3743347676,"source":"CELESTRAK","updated_at":"2026-05-25T13:38:19.230609Z"}}}